Location: Unspecified
(0.0000°N, 0.0000°E)
Time: 17:38:16
(UTC+00:00)

Vanguard 3 - Pass Details

Date: 02 February 2023
Orbit: 509 x 3249 km, 33.3° (Epoch: 20 March)

Event Time Altitude Azimuth Distance (km) Brightness Sun altitude
Rises 07:00:07 0° 258° (WSW) 6,200 11.1 11.1°
Reaches altitude 10° 07:10:20 10° 223° (SW) 4,221 10.6 13.5°
Maximum altitude 07:11:49 10° 215° (SW) 4,034 10.6 13.9°
Drops below altitude 10° 07:13:14 10° 207° (SSW) 3,903 10.6 14.2°
Sets 07:20:05 0° 167° (SSE) 4,072 11.2 15.9°
